Weather in Jessore

Bangladesh     23°09′47″N   89°12′10″E
temp.,
°C
wind,
m/s
gust,
m/s
humid.,
%
clouds,
%
prec.,
mm/h
press.,
hPa
HPBL,
m
6 march, sat
sat600:00+21ssw4129266 0.0 1009283
03:00+21s3993100 0.0 1008223
06:00+19sw339097 0.0 100946
09:00+26sw333413 0.0 1012357
12:00+36ssw13176 0.0 10101503
15:00+37w46110 0.0 10073852
18:00+30w34180 0.0 100645
21:00+24s45340 0.0 100967
7 march, sun
sun700:00+20sw34820 0.0 101047
03:00+19sw34800 0.0 100947
06:00+18ssw23860 0.0 100924
09:00+26ssw35590 0.0 1012457
12:00+34ssw34230 0.0 10111988
15:00+37w45140 0.0 10073374
18:00+31w33180 0.0 100724
21:00+22s46760 0.0 101090
8 march, mon
mon800:00+21sw23960 0.0 101072
03:00+20sw23978 0.0 100949
06:00+20sse33988 0.0 101063
09:00+27s456832 0.0 1014562
12:00+35sw572616 0.0 10121709
15:00+38wsw67160 0.0 10083637
18:00+32sw34220 0.0 100825
21:00+24ssw410670 0.0 1010242
9 march, tue
tue900:00+20wsw11880 0.0 101023
03:00+20sw22930 0.0 100923
06:00+20s33930 0.0 101049
09:00+28ssw57510 0.0 1013597
12:00+37sw710170 0.0 10112216
15:00+39sw78130 0.0 10073758
18:00+32ssw612250 0.0 1007361
21:00+24s512590 0.0 1009294
10 march, wed
wed1000:00+21ssw512920 0.0 1010273
03:00+22ssw612850 0.0 1009289
06:00+20ssw37910 0.0 1010167
09:00+28ssw47490 0.0 1012639
12:00+37sw79200 0.0 10111731
15:00+39sw67160 0.0 10072862
18:00+33ssw612240 0.0 1006336
21:00+25s713690 0.0 1008331